Hourly Data Report for October 13, 2015

All times are specified in Local Standard Time (LST). Add 1 hour to adjust for Daylight Saving Time where and when it is observed.

PETAWAWA AWOS 2
ONTARIO

45°57'00.000" N
77°19'00.000" W
130.10 m
6106396
71625
YWA

Download Data

Hourly Data (October 2015)
Hourly Data Report for October 13, 2015
Temp Definition
°C
Dew Point Temp Definition
°C
Rel Hum Definition
%
Wind Dir Definition
10's deg

Wind Spd Definition
km/h
Visibility Definition
km
Stn Press Definition
kPa
Hmdx Definition


Wind Chill Definition


Weather Definition


TIME
00:00 16.2 10.5 69 16 6 14.5 98.11     LegendNANA
01:00 15.9 10.7 71 13 7 14.5 98.07     LegendNANA
02:00 15.3 10.9 75 13 11 14.5 97.96     Rain
03:00 14.6 12.3 86 14 13 14.5 97.88     Rain
04:00 13.8 12.5 92 14 15 3.7 97.85     Moderate Rain
05:00 13.2 12.7 97 12 15 4.0 97.81     Moderate Rain
06:00 13.5 13.0 97 12 17 4.8 97.78     Moderate Rain
07:00 13.6 13.2 97 14 17 4.0 97.78     Moderate Rain
08:00 13.9 13.4 97 13 15 8.0 97.77     Rain
09:00 14.2 13.6 96 16 9 14.5 97.74     Drizzle
10:00 14.8 14.0 95 13 11 14.5 97.67     LegendNANA
11:00 15.1 14.2 94 16 9 14.5 97.62     Rain
12:00 13.5 11.7 89 25 11 14.5 97.66     Rain
13:00 14.5 10.7 78 22 15 14.5 97.64     LegendNANA
14:00 15.4 8.7 64 25 28 14.5 97.62     Drizzle
15:00 15.0 9.1 68 24 9 14.5 97.65     LegendNANA
16:00 14.1 8.8 70 23 13 14.5 97.69     LegendNANA
17:00 12.2 10.8 91 18 6 14.5 97.69     LegendNANA
18:00 12.4 10.6 89 21 9 14.5 97.67     LegendNANA
19:00 12.6 10.9 89 25 15 14.5 97.72     Rain
20:00 12.7 11.1 90 27 15 14.5 97.82     LegendNANA
21:00 12.5 10.6 88 29 17 14.5 97.93     LegendNANA
22:00 11.8 8.6 81 31 28 14.5 98.07     LegendNANA
23:00 10.5 7.2 80 30 24 14.5 98.18     LegendNANA

Notes on Data Quality.

Legend

  • E = Estimated
  • M = Missing
  • NA = Not Available
  • ‡ = Partner data that is not subject to review by the National Climate Archives
Date modified: